Back to catalog

STARLINK-36238

AliveCommunicationsVLEO
NORAD 68563·PAYLOAD·🇺🇸 United States

Launched Apr 2, 2026 from Cape Canaveral Space Force Station

Loading…

Next Passes (next 24 hours)

TLE

FreshSource: CelesTrak SupGP

Epoch: Sep 14, 2026, 20:55 UTC

1 68563C 26070X   26257.87201389  .00025908  00000+0  76522-3 0  2578
2 68563  53.1581 199.7967 0001237  85.4947  15.8293 15.34387302    16

Track STARLINK-36238 in real time with AllMySat

Download on the App Store